Regional Weather Roundup
Issued by NWS Little Rock, AR

Home | Current Version | Previous Version | Graphics & Text | Print | Product List | Glossary On
Versions: 1 2 3 4 5 6 7 8 9 10 11 12 13 14 15 16 17 18 19 20 21 22 23 24 25 26 27 28 29 30 31 32 33 34 35 36 37 38 39 40 41 42 43 44 45 46 47 48 49 50
000
ASUS44 KLZK 271405
RWRLZK

WEATHER ROUNDUP FOR ARKANSAS
NATIONAL WEATHER SERVICE LITTLE ROCK AR
900 AM CDT FRI MAR 27 2015

NOTE: "FAIR" INDICATES FEW OR NO CLOUDS BELOW 12,000 FEET WITH NO
SIGNIFICANT WEATHER AND/OR OBSTRUCTIONS TO VISIBILITY.

ARZ001-003-010-029-271500-
NORTHWEST ARKANSAS

CITY           SKY/WX    TMP DP  RH WIND       PRES   REMARKS
FAYETTEVILLE   CLOUDY    40  37  89 VRB6      30.15R
FORT SMITH     CLOUDY    46  36  68 N9        30.12R
HARRISON       CLOUDY    38  36  92 NW7       30.12R
BENTONVILLE    CLOUDY    39  34  81 N15       30.16R
ROGERS         CLOUDY    38  35  89 N12G17    30.16R
SILOAM SPGS    CLOUDY    39  32  75 N14       30.17R
HIGHFILL       CLOUDY    40  35  83 N14       30.15R
SPRINGDALE     CLOUDY    39  36  87 N12       30.17R
$$

ARZ004-005-016-271500-
NORTH CENTRAL ARKANSAS

CITY           SKY/WX    TMP DP  RH WIND       PRES   REMARKS
BATESVILLE     CLOUDY    39  37  93 NW3       30.13R
FLIPPIN        CLOUDY    39  34  81 NW6       30.12R
MTN HOME       CLOUDY    38  37  97 NW5       30.11R
$$

ARZ040-041-271500-
WEST CENTRAL ARKANSAS

CITY           SKY/WX    TMP DP  RH WIND       PRES   REMARKS
MENA           PTSUNNY   45  37  76 CALM      30.06F
MOUNT IDA      CLOUDY    42  38  85 CALM      30.05R
$$

ARZ009-017-025-026-028-271500-
NORTHEAST ARKANSAS

CITY           SKY/WX    TMP DP  RH WIND       PRES   REMARKS
CORNING          N/A     41  32  70 N9        30.11R
JONESBORO      LGT RAIN  42  37  82 NW7       30.10R
NEWPORT        LGT RAIN  42  39  89 N14       30.13R
BLYTHEVILLE    CLOUDY    44  39  82 N13       30.08R
$$

ARZ022-023-033-042-044-271500-
CENTRAL ARKANSAS

CITY           SKY/WX    TMP DP  RH WIND       PRES   REMARKS
LITTLE ROCK    PTSUNNY   48  35  60 N9        30.10R
N LITTLE ROCK  PTSUNNY   45  37  73 N7        30.10R
JACKSONVILLE   PTSUNNY   46  35  64 NE8       30.10R
SEARCY         LGT RAIN  43  35  73 N10       30.12S
HOT SPRINGS    PTSUNNY   47  41  80 CALM      30.08R
RUSSELLVILLE   PTSUNNY   48  35  60 N6        30.10R
CLINTON        PTSUNNY   43  36  75 CALM      30.13R
$$

ARZ036-271500-
EAST ARKANSAS

CITY           SKY/WX    TMP DP  RH WIND       PRES   REMARKS
WEST MEMPHIS   PTSUNNY   43  40  89 NW5       30.09R
$$

ARZ050-053-066-070-073-271500-
SOUTHWEST ARKANSAS

CITY           SKY/WX    TMP DP  RH WIND       PRES   REMARKS
ARKADELPHIA      N/A     44  44 100 CALM      30.10S
CAMDEN         SUNNY     46  43  87 CALM      30.09F
TEXARKANA      SUNNY     48  38  68 SW6       30.09S
EL DORADO      SUNNY     45  42  89 S3        30.10S
$$

ARZ056-057-069-271500-
SOUTHEAST ARKANSAS

CITY           SKY/WX    TMP DP  RH WIND       PRES   REMARKS
PINE BLUFF     PTSUNNY   45  43  93 SE3       30.09S
STUTTGART      CLOUDY    46  39  76 SE6       30.10S
MONTICELLO     PTSUNNY   47  42  83 SE3       30.10R

$$





USA.gov is the U.S. government's official web portal to all federal, state and local government web resources and services.